{"data":{"norad_id":51629,"intl_designator":"2022-012H","name":"ONEWEB-0428","alt_names":[],"object_type":"PAYLOAD","status":"ACTIVE","operator":null,"country":"UK","launch_date":"2022-02-10","launch_site_code":"FRGUI","launch_vehicle":null,"mission":null,"orbit_class":"UNKNOWN","rcs_meters":null,"size_class":null,"mass_kg":null,"dimensions":null,"purposes":["comms"],"wikipedia_slug":null,"has_3d_model":false,"image_url":null,"decayed_at":null,"tle_current":{"epoch":"2026-09-20T01:50:30.837984Z","epoch_age_seconds":62339,"freshness":"FRESH","line1":"1 51629U 22012H   26263.07674581  .00000639  00000+0  17944-2 0  9991","line2":"2 51629  87.8899  17.3809 0001745 100.6101 259.5223 13.10374445221711","mean_motion":13.10374445,"eccentricity":0.0001745,"inclination_deg":87.8899,"raan_deg":17.3809,"arg_perigee_deg":100.6101,"mean_anomaly_deg":259.5223,"bstar":0.0017944,"rev_number":22171,"period_min":109.89225297354,"perigee_km":1220.3846826549,"apogee_km":1223.0370295567,"semimajor_km":7599.8478561058,"source":"CELESTRAK","updated_at":"2026-09-20T09:00:44.709054Z"}}}